Location: Unspecified
(51.5147°N, 7.4673°E)
Time: 10:41:31
(UTC+01:00)

Transit 2A Rocket - Visible Passes

Search period start: 17 February 2026 00:00
Search period end: 27 February 2026 00:00
Orbit: 582 x 901 km, 66.7° (Epoch: 16 February)

Date Brightness Start Highest point End Pass type
(mag) Time Alt. Az. Time Alt. Az. Time Alt. Az.
17 Feb 6.8 18:52:50 10° W 18:58:13 32° NNW 19:03:27 10° NNE visible
17 Feb 7.3 20:38:21 10° NW 20:42:25 18° N 20:44:51 15° NNE visible
17 Feb 7.6 22:22:32 10° NNW 22:24:32 17° NNW 22:24:32 17° NNW visible
18 Feb 7.3 19:51:46 10° WNW 19:56:09 20° NNW 20:00:23 10° NNE visible
18 Feb 7.3 21:36:37 10° NW 21:40:10 19° N 21:40:10 19° N visible
18 Feb 8.0 23:19:29 10° NNW 23:19:51 12° NNW 23:19:51 12° NNW visible
19 Feb 7.1 19:05:09 10° WNW 19:09:57 24° NNW 19:14:35 10° NNE visible
19 Feb 7.2 20:50:29 10° NW 20:54:23 18° N 20:55:47 16° NNE visible
19 Feb 7.6 22:33:49 10° NNW 22:35:28 17° NNW 22:35:28 17° NNW visible
20 Feb 6.8 18:18:34 10° W 18:23:49 30° NNW 18:28:55 10° NNE visible
20 Feb 7.3 20:04:07 10° NW 20:08:05 18° N 20:11:24 12° NNE visible
20 Feb 7.2 21:48:05 10° NNW 21:51:05 20° N 21:51:05 20° N visible
20 Feb 8.1 23:30:37 10° NW 23:30:46 11° NW 23:30:46 11° NW visible
21 Feb 7.2 19:17:34 10° WNW 19:21:48 20° NNW 19:25:54 10° NNE visible
21 Feb 7.0 21:02:13 10° NNW 21:06:19 19° NNE 21:06:42 19° NNE visible
21 Feb 7.6 22:44:58 10° NNW 22:46:23 17° NNW 22:46:23 17° NNW visible
22 Feb 7.1 18:30:55 10° WNW 18:35:34 23° NNW 18:40:04 10° NNE visible
22 Feb 7.1 20:16:09 10° NW 20:20:03 18° N 20:22:18 14° NNE visible
22 Feb 7.1 21:59:19 10° NNW 22:01:59 22° N 22:01:59 22° N visible
23 Feb 7.2 19:29:51 10° NW 19:33:44 18° N 19:37:29 10° NE visible
23 Feb 6.8 21:13:37 10° NNW 21:17:36 23° NNE 21:17:36 23° NNE visible
23 Feb 7.7 22:56:06 10° NW 22:57:17 16° NNW 22:57:17 16° NNW visible
24 Feb 7.2 18:43:20 10° NW 18:47:26 19° N 18:51:25 10° NNE visible
24 Feb 6.8 20:27:48 10° NNW 20:31:58 20° NNE 20:33:13 18° NNE visible
24 Feb 7.1 22:10:28 10° NNW 22:12:55 24° NNW 22:12:55 24° NNW visible
25 Feb 7.1 19:41:48 10° NW 19:45:41 18° N 19:48:51 12° NE visible
25 Feb 6.6 21:24:49 10° NNW 21:28:32 28° N 21:28:32 28° N visible
25 Feb 7.7 23:07:17 10° NW 23:08:13 15° NW 23:08:13 15° NW visible
26 Feb 7.2 18:55:33 10° NW 18:59:23 17° N 19:03:03 10° NE visible
26 Feb 6.5 20:39:08 10° NNW 20:43:45 25° NNE 20:44:10 24° NNE visible
26 Feb 7.1 22:21:35 10° NW 22:23:52 25° NNW 22:23:52 25° NNW visible
